Flag for Greece Weather past 2 weeks in Heraklion, Crete, Greece

Now
55 °F

Passing clouds.


Feels Like: 54 °F
Forecast: 51 / 62 °F
Wind: 7 mph from South

Location: Heraklion Airport

Current Time: Jan 26, 2015 at 9:16:47 AM

Latest Report: Jan 26, 2015 at 8:50 AM


Visibility: N/A

Pressure: 30.04 "Hg

Humidity: 72%

Dew point: 46 °F

Location of HeraklionLocation

Historic Weather in Heraklion — Graph

°F

Heraklion temperature yesterday

Maximum temperature yesterday: 61 °F (at 12:50 PM)
Minimum temperature yesterday: 52 °F (at 4:50 PM)
Average temperature yesterday: 55 °F

Past Weeks' High & Low Weather Summary

 TemperatureHumidityPressure
High73 °F (Jan 21, 12:50 PM)94% (Jan 13, 4:50 PM)30.33 "Hg (Jan 13, 4:50 PM)
Low45 °F (Jan 18, 1:50 AM)28% (Jan 22, 5:50 PM)29.77 "Hg (Jan 23, 2:50 PM)
Average57 °F69%30.03 "Hg
* Reported Jan 11 7:20 AM — Jan 26 7:50 AM, Heraklion, Weather by CustomWeather, © 2014

Note: Actual official high and low records may vary slightly from our data, if they occured in-between our weather recording intervals... More about our weather records

Advertising

Heraklion weather history for previous 24 hours

 ConditionsComfort  
Time TempWeatherWind HumidityBarometerVisibility
7:50 AM
Jan 26
50 °FPassing clouds.6 mph82%30.04 "HgN/A
7:20 AM50 °FPassing clouds.6 mph82%30.01 "HgN/A
6:50 AM50 °FPassing clouds.6 mph82%30.01 "HgN/A
6:20 AM54 °FPassing clouds.6 mph72%29.98 "HgN/A
5:50 AM54 °FPassing clouds.5 mph72%29.98 "HgN/A
5:20 AM54 °FPassing clouds.5 mph72%29.95 "HgN/A
4:50 AM54 °FPassing clouds.5 mph72%29.95 "HgN/A
4:20 AM54 °FPassing clouds.5 mph67%29.95 "HgN/A
3:50 AM54 °FPassing clouds.6 mph67%29.95 "HgN/A
3:20 AM55 °FPassing clouds.14 mph63%29.92 "HgN/A
2:50 AM55 °FPassing clouds.14 mph63%29.92 "HgN/A
2:20 AM55 °FPassing clouds.13 mph63%29.92 "HgN/A
1:50 AM55 °FPassing clouds.13 mph63%29.92 "HgN/A
1:20 AM55 °FPassing clouds.12 mph63%29.89 "HgN/A
12:50 AM55 °FPassing clouds.14 mph63%29.89 "HgN/A
12:20 AM55 °FPassing clouds.17 mph59%29.89 "HgN/A
11:50 PM
Jan 25
55 °FPassing clouds.20 mph59%29.89 "HgN/A
11:20 PM55 °FPassing clouds.17 mph59%29.89 "HgN/A
10:50 PM55 °FPassing clouds.18 mph59%29.89 "HgN/A
10:20 PM52 °FPassing clouds.12 mph72%29.89 "HgN/A
9:50 PM52 °FPassing clouds.16 mph72%29.89 "HgN/A
9:20 PM52 °FPassing clouds.17 mph72%29.89 "HgN/A
8:50 PM52 °FPassing clouds.16 mph72%29.89 "HgN/A
7:50 PM52 °FPassing clouds.16 mph72%29.89 "HgN/A
7:20 PM54 °FPassing clouds.14 mph63%29.89 "HgN/A
6:50 PM54 °FPassing clouds.20 mph63%29.89 "HgN/A
6:20 PM52 °FPassing clouds.13 mph77%29.86 "HgN/A
5:50 PM52 °FPassing clouds.9 mph77%29.86 "HgN/A
5:20 PM52 °FPartly sunny.8 mph88%29.86 "HgN/A
4:50 PM52 °FLight rain. Partly sunny.15 mph88%29.86 "HgN/A
4:20 PM57 °FLight rain. Partly sunny.13 mph67%29.83 "HgN/A
3:50 PM57 °FPartly sunny.9 mph67%29.83 "HgN/A
3:20 PM55 °FPartly sunny.12 mph82%29.83 "HgN/A
2:50 PM55 °FPartly sunny.9 mph82%29.83 "HgN/A
2:20 PM55 °FLight rain. Partly sunny.12 mph72%29.86 "HgN/A
1:50 PM55 °FLight rain. Partly sunny.12 mph72%29.86 "HgN/A
1:20 PM61 °FRain. Partly sunny.16 mph59%29.86 "Hg5 mi
12:50 PM61 °FPartly sunny.14 mph59%29.86 "HgN/A
12:20 PM57 °FPartly sunny.16 mph63%29.89 "HgN/A
11:50 AM57 °FPartly sunny.18 mph63%29.89 "HgN/A
11:20 AM57 °FPartly sunny.12 mph67%29.89 "HgN/A
10:50 AM55 °FLight rain. Partly sunny.14 mph82%29.89 "HgN/A
10:20 AM59 °FRain. Partly sunny.14 mph63%29.86 "Hg5 mi
9:50 AM59 °FScattered clouds.21 mph59%29.86 "HgN/A
9:20 AM59 °FScattered clouds.18 mph63%29.83 "HgN/A
Weather by CustomWeather, © 2014

See weather overviewHow to use our weather pages